Location: Santa Teresa Spring
(37.2333°N, 121.7000°W)
Time: 18:41:47
(UTC-07:00)

ISS - Visible Passes

Search period start: 31 July 2014 00:00
Search period end: 10 August 2014 00:00
Orbit: 411 x 419 km, 51.6° (Epoch: 31 July)

Date Brightness Start Highest point End Pass type
(mag) Time Alt. Az. Time Alt. Az. Time Alt. Az.
31 Jul 0.2 03:53:37 10° N 03:54:27 11° NNE 03:55:17 10° NNE visible
31 Jul -1.9 05:28:39 10° NW 05:31:53 43° NE 05:35:06 10° ESE visible
01 Aug -0.9 04:40:01 10° NNW 04:42:56 27° NNE 04:45:51 10° E visible
01 Aug -2.1 21:21:08 10° S 21:23:26 22° SE 21:23:26 22° SE visible
02 Aug -0.3 03:51:30 10° NNW 03:53:55 18° NNE 03:56:20 10° ENE visible
02 Aug -3.3 05:27:34 10° NW 05:30:54 61° SW 05:34:12 10° SE visible
02 Aug -2.7 22:08:13 10° WSW 22:11:30 57° NW 22:14:16 14° NE visible
03 Aug 0.1 03:03:07 10° N 03:04:50 13° NNE 03:06:33 10° NE visible
03 Aug -3.0 04:38:43 10° NW 04:42:04 70° NE 04:45:24 10° SE visible
03 Aug -3.4 21:19:20 10° SW 21:22:38 76° SE 21:25:58 10° NE visible
03 Aug -0.2 22:57:30 10° WNW 22:59:41 16° NNW 23:01:53 10° NNE visible
04 Aug -1.9 03:52:25 33° N 03:53:09 39° NE 03:56:20 10° ESE visible
04 Aug -1.8 05:27:12 10° W 05:29:40 19° SW 05:32:08 10° S visible
04 Aug -0.8 22:07:54 10° W 22:10:38 23° NNW 22:13:23 10° NNE visible
05 Aug -1.0 04:43:29 14° SSE 04:43:29 14° SSE 04:44:01 10° SSE visible
05 Aug -1.6 21:18:32 10° WSW 21:21:38 36° NW 21:24:45 10° NE visible
06 Aug 0.0 22:08:23 10° NW 22:09:57 13° NNW 22:11:31 10° N visible
07 Aug -0.3 21:18:31 10° WNW 21:20:49 17° NNW 21:23:08 10° NNE visible
09 Aug 0.1 21:19:41 10° NNW 21:20:10 10° NNW 21:20:39 10° N visible
